User: anonymous   Login
Location: Unspecified
(0.0000°N, 0.0000°E)
Time: 18:56:28
(UTC+00:00)
Language:

Kosmos-2100 - Orbit

View from above orbital plane
View from above orbital plane
View from above satellite
View from above satellite

Ground track
Ground track

The orbit data is extracted from the following two-line orbital elements,

1 20804U 90083A   19341.50900622  .00000027  00000-0  12600-4 0  9998
2 20804  82.9376 132.6662 0038092  81.3098 340.4386 13.74328868466068
Epoch (UTC): 07 December 2019 12:12:58
Eccentricity: 0.0038092
inclination: 82.9376°
perigee height: 956 km
apogee height: 1012 km
right ascension of ascending node: 132.6662°
argument of perigee: 81.3098°
revolutions per day: 13.74328868
mean anomaly at epoch: 340.4386°
orbit number at epoch: 46606

The dashed part of the orbit path shows where the satellite is in the earth's shadow,  

DLR